Flag for Germany Weather past 2 weeks in Riesa, Saxony, Germany

Now
38 °F

Overcast.


Feels Like: 32 °F
Forecast: 41 / 47 °F
Wind: 10 mph from West

Location: Dresden-Klotzsche

Current Time: Dec 21, 2014 at 3:26:07 AM

Latest Report: Dec 21, 2014 at 3:00 AM


Visibility: 19 mi

Pressure: 30.14 "Hg

Humidity: 82%

Dew point: 33 °F

Location of RiesaLocation

Historic Weather in Riesa — Graph

°F

Riesa temperature yesterday

Maximum temperature yesterday: 42 °F (at 11:00 AM)
Minimum temperature yesterday: 36 °F (at 7:00 PM)
Average temperature yesterday: 41 °F

Past Weeks' High & Low Weather Summary

 TemperatureHumidityPressure
High54 °F (Dec 19, 2:00 AM)100% (Dec 7, 5:00 AM)30.45 "Hg (Dec 7, 5:00 AM)
Low25 °F (Dec 10, 2:00 AM)62% (Dec 15, 6:00 PM)29.56 "Hg (Dec 12, 11:00 PM)
Average40 °F85%29.99 "Hg
* Reported Dec 6 2:00 AM — Dec 21 2:00 AM, Riesa, Weather by CustomWeather, © 2014

Note: Actual official high and low records may vary slightly from our data, if they occured in-between our weather recording intervals... More about our weather records

Advertising

Riesa weather history for previous 24 hours

 ConditionsComfort  
Time TempWeatherWind HumidityBarometerVisibility
2:00 AM
Dec 21
38 °FOvercast.10 mph80%30.12 "Hg19 mi
1:00 AM39 °FOvercast.9 mph82%30.10 "Hg19 mi
12:00 AM38 °FOvercast.8 mph88%30.08 "Hg19 mi
11:00 PM
Dec 20
37 °FOvercast.8 mph90%30.05 "Hg16 mi
9:00 PM38 °FLight rain. Overcast.9 mph86%29.98 "Hg19 mi
8:00 PM36 °FLow clouds.9 mph92%29.96 "Hg16 mi
7:00 PM36 °FRain. Low clouds.8 mph95%29.95 "Hg4 mi
6:00 PM41 °FLight rain. Overcast.10 mph80%29.90 "Hg11 mi
5:00 PM41 °FLight rain. Overcast.10 mph74%29.90 "Hg16 mi
4:00 PM42 °FOvercast.12 mph70%29.90 "Hg19 mi
3:00 PM42 °FOvercast.12 mph67%29.92 "Hg28 mi
2:00 PM42 °FOvercast.12 mph69%29.95 "Hg25 mi
1:00 PM42 °FOvercast.10 mph68%29.97 "Hg28 mi
12:00 PM42 °FOvercast.12 mph69%29.99 "Hg31 mi
11:00 AM42 °FOvercast.12 mph68%30.01 "Hg31 mi
9:00 AM42 °FOvercast.9 mph70%30.03 "Hg28 mi
8:00 AM41 °FPassing clouds.10 mph70%30.04 "Hg28 mi
7:00 AM41 °FPassing clouds.10 mph70%30.04 "Hg28 mi
6:00 AM41 °FPassing clouds.9 mph72%30.04 "Hg28 mi
5:00 AM40 °FPassing clouds.10 mph73%30.03 "Hg28 mi
3:00 AM40 °FPassing clouds.8 mph74%30.03 "Hg22 mi
Weather by CustomWeather, © 2014

See weather overviewHow to use our weather pages